Hourly Data Report for September 12, 2017

All times are specified in Local Standard Time (LST). Add 1 hour to adjust for Daylight Saving Time where and when it is observed.

BUCTOUCHE CDA CS
NEW BRUNSWICK

46°25'49.006" N
64°46'05.009" W
35.90 m
8100593
71666
ABT

Download Data

Hourly Data (September 2017)
Hourly Data Report for September 12, 2017
Temp Definition
°C
Dew Point Temp Definition
°C
Rel Hum Definition
%
Wind Dir Definition
10's deg

Wind Spd Definition
km/h
Visibility Definition
km
Stn Press Definition
kPa
Hmdx Definition


Wind Chill Definition


Weather Definition


TIME
00:00 10.2 9.4 95 28 9   101.02     LegendNANA
01:00 10.6 9.6 93 32 7   100.97     LegendNANA
02:00 10.6 9.3 91 32 8   100.91     LegendNANA
03:00 9.9 8.7 92 32 7   100.83     LegendNANA
04:00 9.2 8.2 94 28 9   100.84     LegendNANA
05:00 9.0 8.0 93 29 6   100.80     LegendNANA
06:00 8.7 7.6 93 27 4   100.77     LegendNANA
07:00 9.2 8.4 95 25 4   100.76     LegendNANA
08:00 11.5 9.9 90 28 6   100.75     LegendNANA
09:00 14.0 11.3 84 3 2   100.68     LegendNANA
10:00 16.3 11.2 72 31 5   100.67     LegendNANA
11:00 18.5 12.0 66 32 4   100.57     LegendNANA
12:00 18.8 10.4 58 25 6   100.51     LegendNANA
13:00 19.8 10.6 55 26 4   100.41     LegendNANA
14:00 21.2 10.4 50 8 2   100.30     LegendNANA
15:00 20.4 11.3 56 7 5   100.23     LegendNANA
16:00 21.1 12.3 57 9 9   100.14     LegendNANA
17:00 19.5 12.2 63 10 8   100.09     LegendNANA
18:00 17.1 11.7 70 11 9   100.06     LegendNANA
19:00 15.6 11.1 74 11 6   100.04     LegendNANA
20:00 15.7 11.7 77 13 9   100.06     LegendNANA
21:00 13.4 11.0 86 1 5   100.06     LegendNANA
22:00 13.9 12.2 89 5 5   100.05     LegendNANA
23:00 11.6 10.3 92 29 3   100.06     LegendNANA

Notes on Data Quality.

Legend

  • E = Estimated
  • M = Missing
  • NA = Not Available
  • ‡ = Partner data that is not subject to review by the National Climate Archives
Date modified: